TimeCST,TemperatureF,Dew PointF,Humidity,Sea Level PressureIn,VisibilityMPH,Wind Direction,Wind SpeedMPH,Gust SpeedMPH,PrecipitationIn,Events,Conditions,WindDirDegrees,DateUTC
12:53 AM,35.1,21.9,59,30.38,10.0,Variable,4.6,-,N/A,,Overcast,0,2013-02-16 06:53:00
1:53 AM,35.1,23.0,61,30.38,10.0,NNW,11.5,20.7,0.00,,Scattered Clouds,340,2013-02-16 07:53:00
2:53 AM,32.0,21.9,66,30.39,10.0,NW,3.5,-,N/A,,Partly Cloudy,320,2013-02-16 08:53:00
3:53 AM,30.9,19.0,61,30.39,10.0,North,5.8,-,N/A,,Clear,350,2013-02-16 09:53:00
4:53 AM,28.9,15.1,56,30.39,10.0,Variable,3.5,-,N/A,,Clear,0,2013-02-16 10:53:00
5:53 AM,26.1,14.0,60,30.40,10.0,West,3.5,-,N/A,,Clear,260,2013-02-16 11:53:00
6:53 AM,26.1,15.1,63,30.40,10.0,NW,3.5,-,N/A,,Clear,310,2013-02-16 12:53:00
7:53 AM,27.0,15.1,61,30.42,10.0,Calm,Calm,-,N/A,,Clear,0,2013-02-16 13:53:00
8:53 AM,30.0,15.1,54,30.43,10.0,NNW,5.8,-,N/A,,Clear,340,2013-02-16 14:53:00
9:53 AM,35.1,12.0,39,30.43,10.0,Variable,6.9,-,N/A,,Clear,0,2013-02-16 15:53:00
10:53 AM,35.1,10.0,35,30.42,10.0,Calm,Calm,-,N/A,,Clear,0,2013-02-16 16:53:00
11:53 AM,39.9,10.9,31,30.38,10.0,Calm,Calm,-,N/A,,Partly Cloudy,0,2013-02-16 17:53:00
12:53 PM,39.0,9.0,29,30.33,10.0,Calm,Calm,-,N/A,,Overcast,0,2013-02-16 18:53:00
1:53 PM,42.1,8.1,25,30.28,10.0,SSW,6.9,-,N/A,,Overcast,200,2013-02-16 19:53:00
2:53 PM,43.0,9.0,25,30.25,10.0,South,9.2,-,N/A,,Overcast,170,2013-02-16 20:53:00
3:53 PM,46.0,10.9,24,30.22,10.0,South,13.8,18.4,N/A,,Partly Cloudy,180,2013-02-16 21:53:00
4:53 PM,46.0,12.9,26,30.20,10.0,SSW,13.8,-,N/A,,Mostly Cloudy,200,2013-02-16 22:53:00
5:53 PM,45.0,14.0,29,30.18,10.0,South,5.8,-,N/A,,Scattered Clouds,180,2013-02-16 23:53:00
6:53 PM,43.0,15.1,32,30.17,10.0,SSE,5.8,-,N/A,,Scattered Clouds,160,2013-02-17 00:53:00
7:53 PM,41.0,15.1,35,30.16,10.0,SSE,4.6,-,N/A,,Clear,160,2013-02-17 01:53:00
8:53 PM,39.0,17.1,41,30.15,10.0,SSE,3.5,-,N/A,,Clear,160,2013-02-17 02:53:00
9:53 PM,37.9,15.1,39,30.15,10.0,South,4.6,-,N/A,,Clear,170,2013-02-17 03:53:00
10:53 PM,33.1,17.1,52,30.13,10.0,Calm,Calm,-,N/A,,Clear,0,2013-02-17 04:53:00
11:53 PM,34.0,18.0,52,30.11,10.0,Calm,Calm,-,N/A,,Clear,0,2013-02-17 05:53:00